�������l�o���
Date,Time,MP-1(��Sv/h),MP-2(��Sv/h),MP-3(��Sv/h),MP-4(��Sv/h),MP-5(��Sv/h),MP-6(��Sv/h),MP-7(��Sv/h),MP-8(��Sv/h),����,����(m/s),���J
2019/09/13,00:00,0.737,1.044,0.718,1.284,0.937,0.421,0.732,0.691,�k��,3.6,��
2019/09/13,00:10,0.737,1.043,0.719,1.284,0.936,0.420,0.732,0.693,�k��,3.9,��
2019/09/13,00:20,0.738,1.043,0.719,1.282,0.938,0.421,0.733,0.692,�k��,4.2,��
2019/09/13,00:30,0.739,1.043,0.718,1.279,0.936,0.421,0.732,0.692,�k��,4.2,��
2019/09/13,00:40,0.738,1.042,0.717,1.282,0.933,0.420,0.731,0.691,�k�k��,3.7,��
2019/09/13,00:50,0.737,1.043,0.716,1.281,0.936,0.421,0.733,0.694,�k�k��,3.8,��
2019/09/13,01:00,0.737,1.042,0.718,1.283,0.936,0.420,0.731,0.693,�k��,4.2,��
2019/09/13,01:10,0.736,1.043,0.717,1.284,0.937,0.421,0.732,0.694,�k��,4.2,��
2019/09/13,01:20,0.737,1.043,0.719,1.282,0.935,0.421,0.731,0.692,�k�k��,3.8,��
2019/09/13,01:30,0.736,1.041,0.718,1.282,0.937,0.421,0.731,0.693,�k�k��,4.4,��
2019/09/13,01:40,0.736,1.041,0.718,1.284,0.937,0.422,0.731,0.691,�k�k��,4.1,��
2019/09/13,01:50,0.737,1.041,0.716,1.283,0.934,0.421,0.731,0.693,�k��,4.1,��
2019/09/13,02:00,0.735,1.043,0.718,1.281,0.935,0.419,0.731,0.694,�k�k��,3.9,��
2019/09/13,02:10,0.735,1.040,0.715,1.282,0.936,0.421,0.732,0.694,�k�k��,4.0,��
2019/09/13,02:20,0.736,1.042,0.718,1.282,0.933,0.421,0.732,0.693,�k�k��,4.7,��
2019/09/13,02:30,0.737,1.044,0.717,1.282,0.934,0.421,0.730,0.693,�k�k��,4.0,��
2019/09/13,02:40,0.737,1.041,0.717,1.282,0.936,0.419,0.731,0.692,�k�k��,4.2,��
2019/09/13,02:50,0.737,1.041,0.720,1.282,0.933,0.420,0.731,0.694,�k�k��,3.8,��
2019/09/13,03:00,0.737,1.043,0.718,1.284,0.935,0.422,0.731,0.694,�k��,4.2,��
2019/09/13,03:10,0.737,1.041,0.718,1.282,0.937,0.421,0.732,0.692,�k�k��,4.1,��
2019/09/13,03:20,0.736,1.042,0.719,1.284,0.936,0.421,0.733,0.693,�k��,4.1,��
2019/09/13,03:30,0.737,1.041,0.717,1.284,0.935,0.421,0.732,0.693,�k�k��,4.6,��
2019/09/13,03:40,0.737,1.041,0.718,1.283,0.933,0.420,0.730,0.692,�k�k��,4.5,��
2019/09/13,03:50,0.735,1.041,0.718,1.280,0.936,0.422,0.733,0.692,�k�k��,4.5,��
2019/09/13,04:00,0.736,1.041,0.718,1.283,0.937,0.419,0.733,0.692,�k��,5.1,��
2019/09/13,04:10,0.735,1.040,0.719,1.281,0.934,0.423,0.731,0.692,�k�k��,4.9,��
2019/09/13,04:20,0.737,1.042,0.718,1.282,0.935,0.420,0.733,0.692,�k��,4.9,��
2019/09/13,04:30,0.738,1.041,0.716,1.283,0.934,0.420,0.731,0.694,�k�k��,4.9,��
2019/09/13,04:40,0.737,1.042,0.718,1.282,0.936,0.423,0.732,0.692,�k�k��,4.7,��
2019/09/13,04:50,0.736,1.042,0.717,1.284,0.937,0.421,0.732,0.693,�k�k��,4.7,��
2019/09/13,05:00,0.737,1.042,0.718,1.283,0.936,0.421,0.732,0.693,�k�k��,5.2,��
2019/09/13,05:10,0.735,1.041,0.717,1.284,0.934,0.422,0.730,0.692,�k�k��,5.5,��
2019/09/13,05:20,0.736,1.041,0.717,1.283,0.936,0.421,0.732,0.693,�k�k��,5.6,��
2019/09/13,05:30,0.737,1.042,0.715,1.281,0.935,0.420,0.732,0.692,�k�k��,5.8,��
2019/09/13,05:40,0.737,1.041,0.719,1.282,0.935,0.420,0.733,0.694,�k�k��,5.6,��
2019/09/13,05:50,0.737,1.042,0.718,1.283,0.935,0.420,0.732,0.694,�k��,5.1,��
2019/09/13,06:00,0.734,1.042,0.717,1.283,0.936,0.420,0.731,0.693,�k��,5.3,��
2019/09/13,06:10,0.735,1.042,0.716,1.282,0.936,0.420,0.731,0.695,�k�k��,5.8,��
2019/09/13,06:20,0.736,1.042,0.718,1.284,0.936,0.419,0.731,0.694,�k�k��,5.6,��
2019/09/13,06:30,0.735,1.042,0.715,1.284,0.935,0.420,0.731,0.693,�k�k��,5.8,��
2019/09/13,06:40,0.739,1.042,0.716,1.282,0.935,0.420,0.733,0.694,�k�k��,5.8,��
2019/09/13,06:50,0.737,1.045,0.718,1.283,0.937,0.420,0.731,0.695,�k�k��,6.4,��
2019/09/13,07:00,0.737,1.042,0.719,1.282,0.936,0.420,0.730,0.694,�k�k��,5.7,��
2019/09/13,07:10,0.737,1.045,0.719,1.282,0.936,0.421,0.731,0.693,�k�k��,5.7,��
2019/09/13,07:20,0.737,1.042,0.720,1.285,0.936,0.422,0.732,0.693,�k�k��,4.6,��
2019/09/13,07:30,0.739,1.044,0.719,1.284,0.935,0.421,0.729,0.695,�k�k��,4.8,��
2019/09/13,07:40,0.738,1.043,0.719,1.285,0.936,0.420,0.730,0.695,�k��,4.9,��
2019/09/13,07:50,0.739,1.039,0.717,1.283,0.937,0.421,0.731,0.692,�k��,5.0,��
2019/09/13,08:00,0.737,1.042,0.718,1.284,0.938,0.419,0.732,0.695,�k�k��,3.8,�L
2019/09/13,08:10,0.737,1.038,0.720,1.283,0.937,0.420,0.730,0.695,�k�k��,4.1,�L
2019/09/13,08:20,0.739,1.036,0.719,1.283,0.935,0.420,0.731,0.694,�k��,4.0,�L
2019/09/13,08:30,0.736,1.037,0.718,1.283,0.935,0.419,0.733,0.694,�k�k��,4.0,��
2019/09/13,08:40,0.738,1.037,0.718,1.284,0.936,0.419,0.731,0.693,�k�k��,3.6,��
2019/09/13,08:50,0.738,1.039,0.717,1.285,0.937,0.420,0.730,0.693,�k�k��,3.4,��
2019/09/13,09:00,0.735,1.038,0.719,1.283,0.936,0.419,0.730,0.692,�k�k��,3.0,��
2019/09/13,09:10,0.737,1.038,0.719,1.287,0.935,0.420,0.731,0.693,�k�k��,3.3,��
2019/09/13,09:20,0.735,1.035,0.717,1.285,0.936,0.418,0.731,0.692,�k,3.0,��
2019/09/13,09:30,0.736,1.037,0.718,1.284,0.934,0.418,0.733,0.692,�k�k��,3.7,��
2019/09/13,09:40,0.738,1.033,0.718,1.287,0.933,0.419,0.732,0.692,�k�k��,3.4,��
2019/09/13,09:50,0.738,1.033,0.716,1.285,0.935,0.421,0.733,0.691,�k��,2.6,��
2019/09/13,10:00,0.737,1.035,0.717,1.283,0.935,0.419,0.731,0.691,�k��,2.3,��
2019/09/13,10:10,0.739,1.038,0.714,1.285,0.936,0.419,0.733,0.691,�k�k��,2.9,��
2019/09/13,10:20,0.737,1.038,0.717,1.287,0.936,0.419,0.733,0.691,�k�k��,2.3,��
2019/09/13,10:30,0.738,1.038,0.718,1.287,0.938,0.420,0.732,0.691,�k�k��,2.8,��
2019/09/13,10:40,0.739,1.037,0.717,1.285,0.937,0.420,0.734,0.692,�k�k��,3.2,��
2019/09/13,10:50,0.738,1.036,0.719,1.284,0.938,0.419,0.732,0.691,�k�k��,4.1,��
2019/09/13,11:00,0.738,1.041,0.720,1.285,0.938,0.418,0.732,0.692,�k�k��,4.2,��
2019/09/13,11:10,0.738,1.039,0.717,1.283,0.937,0.418,0.732,0.690,�k��,4.0,��
2019/09/13,11:20,0.737,1.040,0.717,1.284,0.939,0.419,0.734,0.690,�k��,3.4,��
2019/09/13,11:30,0.739,1.040,0.717,1.284,0.936,0.421,0.732,0.692,�k��,3.8,��
2019/09/13,11:40,0.738,1.040,0.718,1.284,0.937,0.420,0.730,0.692,�k��,3.2,��
2019/09/13,11:50,0.739,1.039,0.718,1.284,0.938,0.419,0.733,0.692,�k��,4.0,��
2019/09/13,12:00,0.740,1.043,0.718,1.285,0.938,0.419,0.733,0.692,�k��,2.6,��
2019/09/13,12:10,0.740,1.044,0.722,1.284,0.936,0.420,0.733,0.691,���k��,3.1,��
2019/09/13,12:20,0.738,1.044,0.719,1.286,0.938,0.420,0.733,0.693,�k��,3.3,��
2019/09/13,12:30,0.738,1.044,0.719,1.287,0.940,0.420,0.734,0.692,���k��,3.2,��
2019/09/13,12:40,0.741,1.044,0.719,1.285,0.940,0.420,0.732,0.691,��,2.0,��
2019/09/13,12:50,0.739,1.044,0.720,1.287,0.937,0.420,0.731,0.692,��,2.5,��
2019/09/13,13:00,0.739,1.043,0.719,1.287,0.938,0.419,0.732,0.693,��,2.3,��
2019/09/13,13:10,0.738,1.043,0.718,1.286,0.939,0.419,0.734,0.692,��,2.0,��
2019/09/13,13:20,0.741,1.038,0.719,1.285,0.936,0.420,0.732,0.693,��,2.0,��
2019/09/13,13:30,0.740,1.040,0.719,1.285,0.940,0.420,0.733,0.694,�k��,1.5,��
2019/09/13,13:40,0.740,1.037,0.719,1.283,0.938,0.420,0.732,0.691,��,1.7,��
2019/09/13,13:50,0.740,1.037,0.719,1.288,0.937,0.420,0.733,0.692,��,2.0,��
2019/09/13,14:00,0.739,1.039,0.720,1.285,0.938,0.420,0.731,0.692,�쓌,2.5,��
2019/09/13,14:10,0.740,1.039,0.717,1.286,0.938,0.421,0.732,0.692,�쓌,2.6,��
2019/09/13,14:20,0.740,1.042,0.720,1.284,0.939,0.420,0.733,0.691,�쓌,4.3,��
2019/09/13,14:30,0.739,1.041,0.719,1.284,0.940,0.419,0.731,0.692,�쓌,3.9,��
2019/09/13,14:40,0.740,1.042,0.718,1.286,0.939,0.418,0.734,0.692,��쓌,4.6,��
2019/09/13,14:50,0.740,1.041,0.720,1.286,0.938,0.420,0.733,0.691,��쓌,4.5,��
2019/09/13,15:00,0.739,1.045,0.719,1.288,0.938,0.421,0.734,0.690,��쓌,4.5,��
2019/09/13,15:10,0.742,1.044,0.716,1.289,0.940,0.419,0.731,0.693,��쓌,4.9,��
2019/09/13,15:20,0.739,1.044,0.719,1.289,0.940,0.418,0.732,0.693,��쓌,4.5,��
2019/09/13,15:30,0.739,1.046,0.721,1.287,0.941,0.420,0.732,0.693,�쓌,4.6,��
2019/09/13,15:40,0.741,1.046,0.723,1.287,0.940,0.419,0.730,0.691,��쓌,4.6,��
2019/09/13,15:50,0.739,1.045,0.721,1.288,0.941,0.420,0.734,0.693,�쓌,4.4,��
2019/09/13,16:00,0.740,1.047,0.720,1.286,0.939,0.421,0.732,0.692,��쓌,3.9,��
2019/09/13,16:10,0.741,1.049,0.721,1.290,0.938,0.424,0.731,0.693,�쓌,4.2,��
2019/09/13,16:20,0.738,1.049,0.721,1.286,0.939,0.422,0.731,0.692,�쓌,3.3,��
2019/09/13,16:30,0.740,1.052,0.722,1.289,0.941,0.421,0.731,0.692,�쓌,3.5,��
2019/09/13,16:40,0.739,1.051,0.722,1.291,0.940,0.422,0.733,0.692,�쓌,3.8,��
2019/09/13,16:50,0.738,1.050,0.721,1.287,0.939,0.422,0.732,0.693,�쓌,4.5,��
2019/09/13,17:00,0.741,1.050,0.722,1.288,0.940,0.420,0.732,0.692,�쓌,4.2,��
2019/09/13,17:10,0.740,1.051,0.724,1.289,0.940,0.422,0.732,0.692,�쓌,3.2,��
2019/09/13,17:20,0.740,1.051,0.723,1.291,0.941,0.421,0.735,0.694,�쓌,3.4,��
2019/09/13,17:30,0.740,1.053,0.725,1.288,0.937,0.422,0.732,0.694,�쓌,3.9,��
2019/09/13,17:40,0.742,1.052,0.725,1.292,0.941,0.420,0.734,0.694,�쓌,2.5,��
2019/09/13,17:50,0.742,1.053,0.723,1.287,0.940,0.422,0.734,0.694,�쓌,2.6,��
2019/09/13,18:00,0.740,1.051,0.724,1.289,0.940,0.422,0.734,0.695,�쓌,3.1,��
2019/09/13,18:10,0.741,1.053,0.725,1.290,0.940,0.421,0.733,0.693,��쓌,2.9,��
2019/09/13,18:20,0.743,1.054,0.725,1.289,0.941,0.423,0.734,0.694,�쓌,3.0,��
2019/09/13,18:30,0.742,1.055,0.724,1.289,0.943,0.422,0.734,0.695,�쓌,2.5,��
2019/09/13,18:40,0.744,1.055,0.724,1.290,0.944,0.424,0.735,0.694,�쓌,2.5,��
2019/09/13,18:50,0.743,1.052,0.723,1.290,0.942,0.423,0.733,0.695,��,2.2,��
2019/09/13,19:00,0.744,1.054,0.725,1.290,0.942,0.423,0.735,0.694,��쓌,1.4,��
2019/09/13,19:10,0.743,1.053,0.724,1.290,0.943,0.423,0.734,0.695,��쓌,2.3,��
2019/09/13,19:20,0.745,1.056,0.724,1.291,0.945,0.423,0.733,0.693,��쓌,1.9,��
2019/09/13,19:30,0.741,1.053,0.723,1.289,0.943,0.423,0.734,0.695,��,2.3,��
2019/09/13,19:40,0.741,1.053,0.723,1.289,0.942,0.424,0.735,0.693,��,2.3,��
2019/09/13,19:50,0.743,1.054,0.723,1.292,0.942,0.422,0.735,0.692,��,2.6,��
2019/09/13,20:00,0.744,1.054,0.723,1.291,0.941,0.422,0.733,0.695,��,2.0,��
2019/09/13,20:10,0.744,1.054,0.722,1.290,0.941,0.425,0.734,0.695,��쓌,1.7,��
2019/09/13,20:20,0.742,1.051,0.723,1.290,0.943,0.423,0.735,0.694,��쓌,2.0,��
2019/09/13,20:30,0.742,1.052,0.723,1.291,0.944,0.423,0.734,0.693,��,1.4,��
2019/09/13,20:40,0.742,1.052,0.723,1.292,0.945,0.423,0.736,0.693,��쓌,1.9,��
2019/09/13,20:50,0.744,1.054,0.725,1.288,0.942,0.422,0.735,0.694,��쓌,2.6,��
2019/09/13,21:00,0.742,1.053,0.722,1.290,0.943,0.423,0.735,0.694,��,2.3,��
2019/09/13,21:10,0.742,1.053,0.723,1.289,0.943,0.422,0.736,0.695,��,2.8,��
2019/09/13,21:20,0.743,1.053,0.721,1.288,0.941,0.421,0.735,0.694,��쐼,3.1,��
2019/09/13,21:30,0.742,1.052,0.722,1.290,0.946,0.422,0.734,0.694,��쐼,3.1,��
2019/09/13,21:40,0.740,1.051,0.722,1.290,0.945,0.422,0.735,0.693,��쐼,3.3,��
2019/09/13,21:50,0.742,1.051,0.722,1.292,0.942,0.424,0.734,0.693,��,3.4,��
2019/09/13,22:00,0.740,1.052,0.725,1.288,0.941,0.423,0.734,0.694,��,3.8,��
2019/09/13,22:10,0.741,1.051,0.722,1.289,0.942,0.423,0.733,0.692,��,3.9,��
2019/09/13,22:20,0.741,1.052,0.722,1.290,0.940,0.423,0.734,0.694,��,4.0,��
2019/09/13,22:30,0.742,1.053,0.722,1.291,0.941,0.421,0.736,0.692,��,4.2,��
2019/09/13,22:40,0.743,1.050,0.722,1.289,0.942,0.422,0.734,0.693,��,4.1,��
2019/09/13,22:50,0.741,1.050,0.722,1.289,0.943,0.422,0.734,0.692,��,4.3,��
2019/09/13,23:00,0.740,1.052,0.724,1.291,0.944,0.421,0.735,0.694,��,4.1,��
2019/09/13,23:10,0.740,1.051,0.723,1.288,0.942,0.424,0.733,0.693,��,4.3,��
2019/09/13,23:20,0.742,1.050,0.723,1.288,0.940,0.421,0.733,0.693,��,4.2,��
2019/09/13,23:30,0.739,1.052,0.722,1.291,0.943,0.422,0.734,0.693,��,4.0,��
2019/09/13,23:40,0.739,1.052,0.721,1.291,0.942,0.421,0.734,0.693,��,3.7,��
2019/09/13,23:50,0.741,1.048,0.722,1.292,0.943,0.422,0.735,0.694,��,3.6,��
